When you browse on this site, cookies collect data to enhance your experience and personalize the content and advertising you see.
Visit our Privacy Policy to learn more. By continuing to use the site, you agree to this use of cookies and data.
  • In Hungary
  • List of Countries
  • For 7 days
  • Water Temperature
  • Satellite Maps
  • Weather Map
  • News
  • Weather Widgets
  • user-avatar
    Login

    Hourly Weather Oleshky (Cyuryupinsk)

    Today, 17 November, Saturday

    Time Temperature Precipitation Wind Pressure Humidity
    00:00 -1°C° 0 mm 7 mps 772 mmHg 79%
    01:00 -1°C° 0 mm 7 mps 772 mmHg 79%
    02:00 -1°C° 0 mm 6 mps 772 mmHg 82%
    03:00 -1°C° 0 mm 6 mps 772 mmHg 81%
    04:00 -1°C° 0 mm 6 mps 772 mmHg 81%
    05:00 -1°C° 0 mm 6 mps 773 mmHg 81%
    06:00 -1°C° 0 mm 6 mps 773 mmHg 80%
    07:00 -1°C° 0 mm 6 mps 773 mmHg 80%
    08:00 -1°C° 0 mm 6 mps 773 mmHg 79%
    09:00 -1°C° 0 mm 6 mps 773 mmHg 77%
    10:00 +1°C° 0 mm 5 mps 773 mmHg 76%
    11:00 +1°C° 0 mm 5 mps 773 mmHg 74%
    12:00 +2°C° 0 mm 5 mps 773 mmHg 72%
    13:00 +2°C° 0 mm 5 mps 773 mmHg 70%
    14:00 +3°C° 0 mm 5 mps 773 mmHg 68%
    15:00 +3°C° 0 mm 4 mps 773 mmHg 69%
    16:00 +3°C° 0 mm 4 mps 773 mmHg 70%
    17:00 +3°C° 0 mm 3 mps 773 mmHg 71%
    18:00 +2°C° 0 mm 3 mps 773 mmHg 71%
    19:00 +2°C° 0 mm 3 mps 773 mmHg 71%
    20:00 +1°C° 0 mm 3 mps 773 mmHg 71%
    21:00 +1°C° 0 mm 3 mps 773 mmHg 72%
    22:00 0°C° 0 mm 3 mps 773 mmHg 73%
    23:00 0°C° 0 mm 3 mps 772 mmHg 74%

    Tomorrow, 18 November, Sunday

    Time Temperature Precipitation Wind Pressure Humidity
    00:00 0°C° 0 mm 3 mps 772 mmHg 76%
    01:00 -1°C° 0 mm 2 mps 772 mmHg 79%
    02:00 -1°C° 0 mm 2 mps 772 mmHg 81%
    03:00 -1°C° 0 mm 2 mps 772 mmHg 80%
    04:00 -1°C° 0 mm 2 mps 771 mmHg 80%
    05:00 +1°C° 0 mm 2 mps 771 mmHg 79%
    06:00 +1°C° 0 mm 2 mps 771 mmHg 78%
    07:00 +1°C° 0 mm 2 mps 770 mmHg 77%
    08:00 +1°C° 0 mm 2 mps 770 mmHg 75%
    09:00 +3°C° 0 mm 1 mps 770 mmHg 71%
    10:00 +4°C° 0 mm 1 mps 770 mmHg 67%
    11:00 +4°C° 0 mm 1 mps 770 mmHg 63%
    12:00 +5°C° 0 mm 1 mps 769 mmHg 61%
    13:00 +5°C° 0 mm 1 mps 769 mmHg 58%
    14:00 +6°C° 0 mm 1 mps 768 mmHg 55%
    15:00 +5°C° 0 mm 1 mps 768 mmHg 58%
    16:00 +4°C° 0 mm 1 mps 768 mmHg 61%
    17:00 +4°C° 0 mm 1 mps 768 mmHg 63%
    18:00 +3°C° 0 mm 1 mps 768 mmHg 67%
    19:00 +3°C° 0 mm 1 mps 768 mmHg 70%
    20:00 +1°C° 0 mm 2 mps 767 mmHg 73%
    21:00 +1°C° 0 mm 2 mps 767 mmHg 77%
    22:00 +1°C° 0 mm 2 mps 767 mmHg 81%
    23:00 -1°C° 0 mm 2 mps 767 mmHg 85%

    Day after tomorrow, 19 November, Monday

    Time Temperature Precipitation Wind Pressure Humidity
    00:00 -1°C° 0 mm 2 mps 767 mmHg 86%
    01:00 -1°C° 0 mm 3 mps 767 mmHg 88%
    02:00 -1°C° 0 mm 3 mps 766 mmHg 89%
    03:00 -1°C° 0 mm 3 mps 766 mmHg 88%
    04:00 -3°C° 0 mm 4 mps 766 mmHg 88%
    05:00 -3°C° 0 mm 4 mps 766 mmHg 88%
    06:00 -2°C° 0 mm 4 mps 765 mmHg 85%
    07:00 -1°C° 0 mm 5 mps 765 mmHg 82%
    08:00 -1°C° 0 mm 5 mps 765 mmHg 79%
    09:00 0°C° 0.1 mm 5 mps 765 mmHg 79%
    10:00 +1°C° 0.1 mm 6 mps 765 mmHg 79%
    11:00 +2°C° 0.1 mm 6 mps 765 mmHg 78%
    12:00 +3°C° 0.5 mm 7 mps 764 mmHg 79%
    13:00 +2°C° 0.5 mm 8 mps 764 mmHg 81%
    14:00 +2°C° 0.5 mm 8 mps 763 mmHg 82%
    15:00 +2°C° 1 mm 9 mps 763 mmHg 82%
    16:00 +2°C° 1 mm 9 mps 762 mmHg 83%
    17:00 +2°C° 1 mm 9 mps 761 mmHg 83%
    18:00 +2°C° 0.9 mm 9 mps 761 mmHg 84%
    19:00 +2°C° 0.9 mm 10 mps 760 mmHg 86%
    20:00 +3°C° 0.9 mm 10 mps 760 mmHg 87%
    21:00 +3°C° 0.9 mm 10 mps 759 mmHg 88%
    22:00 +3°C° 0.9 mm 9 mps 759 mmHg 88%
    23:00 +5°C° 0.9 mm 8 mps 759 mmHg 89%

    20 November, Tuesday

    Time Temperature Precipitation Wind Pressure Humidity
    00:00 +5°C° 0.6 mm 8 mps 759 mmHg 90%
    01:00 +5°C° 0.6 mm 7 mps 759 mmHg 91%
    02:00 +5°C° 0.6 mm 6 mps 759 mmHg 92%
    03:00 +5°C° 0.2 mm 7 mps 759 mmHg 92%
    04:00 +5°C° 0.2 mm 7 mps 760 mmHg 91%
    05:00 +4°C° 0.2 mm 8 mps 760 mmHg 90%
    06:00 +4°C° 0 mm 8 mps 761 mmHg 88%
    07:00 +4°C° 0 mm 7 mps 762 mmHg 87%
    08:00 +3°C° 0 mm 7 mps 762 mmHg 85%
    09:00 +3°C° 0 mm 7 mps 763 mmHg 83%
    10:00 +3°C° 0 mm 7 mps 764 mmHg 81%
    11:00 +4°C° 0 mm 6 mps 764 mmHg 79%
    12:00 +4°C° 0 mm 6 mps 765 mmHg 77%
    13:00 +5°C° 0 mm 5 mps 765 mmHg 76%
    14:00 +5°C° 0 mm 5 mps 765 mmHg 74%
    15:00 +5°C° 0 mm 4 mps 766 mmHg 76%
    16:00 +5°C° 0 mm 4 mps 766 mmHg 78%
    17:00 +4°C° 0 mm 3 mps 766 mmHg 80%
    18:00 +4°C° 0 mm 3 mps 767 mmHg 81%
    19:00 +4°C° 0 mm 3 mps 767 mmHg 81%
    20:00 +4°C° 0 mm 3 mps 767 mmHg 82%
    21:00 +4°C° 0 mm 3 mps 767 mmHg 83%
    22:00 +4°C° 0 mm 3 mps 767 mmHg 84%
    23:00 +3°C° 0 mm 3 mps 767 mmHg 85%

    21 November, Wednesday

    Time Temperature Precipitation Wind Pressure Humidity
    00:00 +3°C° 0 mm 3 mps 767 mmHg 86%
    01:00 +2°C° 0 mm 3 mps 766 mmHg 88%
    02:00 +2°C° 0 mm 3 mps 766 mmHg 89%
    03:00 +2°C° 0 mm 3 mps 766 mmHg 90%
    04:00 +1°C° 0 mm 3 mps 766 mmHg 91%
    05:00 0°C° 0 mm 4 mps 765 mmHg 92%
    06:00 0°C° 0 mm 4 mps 765 mmHg 91%
    07:00 0°C° 0 mm 4 mps 765 mmHg 89%
    08:00 0°C° 0 mm 5 mps 765 mmHg 88%
    09:00 +1°C° 0 mm 5 mps 765 mmHg 83%
    10:00 +3°C° 0 mm 4 mps 765 mmHg 78%
    11:00 +4°C° 0 mm 4 mps 765 mmHg 74%
    12:00 +3°C° 0 mm 5 mps 764 mmHg 72%
    13:00 +5°C° 0 mm 5 mps 764 mmHg 70%
    14:00 +5°C° 0 mm 5 mps 764 mmHg 68%
    15:00 +5°C° 0.1 mm 5 mps 764 mmHg 70%
    16:00 +3°C° 0.1 mm 5 mps 764 mmHg 71%
    17:00 +3°C° 0.1 mm 5 mps 764 mmHg 73%
    18:00 +3°C° 0.1 mm 5 mps 764 mmHg 73%
    19:00 +3°C° 0.1 mm 5 mps 764 mmHg 74%
    20:00 +3°C° 0.1 mm 6 mps 764 mmHg 74%
    21:00 +2°C° 0 mm 5 mps 764 mmHg 74%
    22:00 +2°C° 0 mm 5 mps 764 mmHg 75%
    23:00 +2°C° 0 mm 5 mps 764 mmHg 75%

    22 November, Thursday

    Time Temperature Precipitation Wind Pressure Humidity
    00:00 +2°C° 0 mm 5 mps 764 mmHg 76%
    01:00 +1°C° 0 mm 5 mps 764 mmHg 76%
    02:00 +1°C° 0 mm 6 mps 764 mmHg 76%
    03:00 -1°C° 0 mm 6 mps 765 mmHg 77%
    04:00 -1°C° 0 mm 6 mps 765 mmHg 77%
    05:00 -2°C° 0 mm 6 mps 765 mmHg 78%
    06:00 -2°C° 0 mm 6 mps 765 mmHg 76%
    07:00 -2°C° 0 mm 6 mps 766 mmHg 74%
    08:00 -3°C° 0 mm 6 mps 766 mmHg 72%
    09:00 -2°C° 0 mm 6 mps 767 mmHg 67%
    10:00 -1°C° 0 mm 6 mps 767 mmHg 62%
    11:00 +1°C° 0 mm 6 mps 767 mmHg 57%
    12:00 +2°C° 0 mm 6 mps 767 mmHg 55%
    13:00 +2°C° 0 mm 6 mps 767 mmHg 53%
    14:00 +3°C° 0 mm 5 mps 767 mmHg 51%
    15:00 +2°C° 0 mm 5 mps 768 mmHg 54%
    16:00 +1°C° 0 mm 5 mps 768 mmHg 57%
    17:00 0°C° 0 mm 4 mps 768 mmHg 61%
    18:00 -1°C° 0 mm 4 mps 768 mmHg 64%
    19:00 -1°C° 0 mm 4 mps 769 mmHg 67%
    20:00 -2°C° 0 mm 5 mps 769 mmHg 71%
    21:00 -2°C° 0 mm 4 mps 769 mmHg 73%
    22:00 -3°C° 0 mm 4 mps 770 mmHg 76%
    23:00 -3°C° 0 mm 4 mps 770 mmHg 78%
    Show more